STARLINK-1417, 45693

Orbit data source: Space-Track

STARLINK-1417, 45693 is a payload satellite owned by SpaceX/Seattle (US) in LEO that was launched on Thu, 04 Jun 2020 UTC via an FALCON 9 launch vehicle from the Air Force Eastern Test Range (AFETR). Payloads include a variety of satellites, spacecraft, and rockets equipped with specific instruments for various scientific and technological missions. These include communications satellites like Starlink; space stations such as the ISS; scientific satellites like the Hubble; Earth observation satellites from companies like Planet Labs, Umbra, and HawkEye 360; GPS; miniature CubeSats for education and research; and military/defense satellites.

Loading next visibility...
STARLINK-1417 details
Identifier
45693, 2020-035AN
Orbit
LEO
Last TLE update1 day ago
Origin
Flag of USSpaceX/Seattle (US)
ManufacturerSpaceX/Seattle
MissionOperational Commercial Communications
Bus & MotorSTARLINK, Unknown motor
Mass260 kg wet, ~248 kg dry
Launch date (UTC)
2020-06-04 (5 years ago)
Launch vehicle
FALCON 9
Launch site
Air Force Eastern Test Range (AFETR)
Object type
Payload
Rocket body
Debris
Shape & HBRBox + 1 Pan, 8.86 m
Radar Cross Section13.562 m², Large (>1 m²)

Expand to show TLE details & history

TLE from 1 day ago
0 STARLINK-1417
1 45693U 20035AN  24360.33453817  .00002779  00000-0  20539-3 0  9993
2 45693  53.0530 228.9556 0001337  90.2969 269.8173 15.06400008252640
Epoch: 2024-12-25T08:01Z
Definitive object data (Epoch: 2024-12-25T08:01:44.097Z)
Latitude-0.00006°
Longitude14.19205°
Altitude548.094 km
Speed7.589 km/s
True Right ascension15h 15m 49s
True Declination0° 00' 00"
Sunlit
Object was in daylight at TLE epoch
Visualization TLE readout
Latitude0.30988°
Longitude-170.95514°
Altitude547.964 km
Speed7.589 km/s
Apparent Right ascension00h 49m 22s
Apparent Declination-23° 38' 39"
Sunlit
Object is in full shadow
Visualization observer readout
Local Sidereal Time09:39:07
Azimuth277.503° WNW
Elevation-47.009°
Doppler factor1
Orbital elements
Apogee altitude548.408 km
Perigee altitude546.557 km
Semi-major axis6,925.619 km
Eccentricity0.0001337
Inclination53.053°
RAAN228.9556°
Arg. of periapsis90.2969°
True anomaly269.80198°
Mean anomaly269.8173°
Eccentric anomaly269.80964°
Mean motion3.76578 °/min
BSTAR0.00020539
Orbital period95.6 mins
Loading maneuver chart data...

STARLINK-1417 Visibility forecast

Observer location: undefined°, undefined

Span
Click to sort rows by Start time (UTC) header in descending order
Start Az.
Max El. time (UTC)
Max El. Az.
Max El.
End time (UTC)
End Az.
7 mins2024-12-26 17:37:57.922Z212.842° SW2024-12-26 17:40:57.922Z161.682° S39.368°2024-12-26 17:44:57.922Z58.287° ENE
5 mins2024-12-26 19:18:57.922Z289.447° WNW2024-12-26 19:20:57.922Z330.763° NNW24.059°2024-12-26 19:23:57.922Z27.239° NE
4 mins2024-12-26 22:40:57.922Z348.031° N2024-12-26 22:42:57.922Z23.172° NE16.494°2024-12-26 22:44:57.922Z54.734° ENE
6 mins2024-12-27 00:19:57.922Z320.32° NNW2024-12-27 00:22:57.922Z45.999° ENE40.371°2024-12-27 00:25:57.922Z113.486° SE
|